When you browse on this site, cookies collect data to enhance your experience and personalize the content and advertising you see.
Visit our Privacy Policy to learn more. By continuing to use the site, you agree to this use of cookies and data.
  • In Latvia
  • List of Countries
  • For 7 days
  • Water Temperature
  • Satellite Maps
  • Weather Map
  • Weather Widgets
  • user-avatar
    Login

    Hourly Weather Vitebsk

    Today, 26 March, Tuesday

    Time Temperature Precipitation Wind Pressure Humidity
    00:00 +1°C° 0 mm 2 mps 739 mmHg 79%
    01:00 -1°C° 0 mm 2 mps 739 mmHg 81%
    02:00 -1°C° 0 mm 2 mps 739 mmHg 86%
    03:00 -1°C° 0 mm 2 mps 739 mmHg 86%
    04:00 -1°C° 0 mm 3 mps 739 mmHg 87%
    05:00 -1°C° 0 mm 3 mps 739 mmHg 88%
    06:00 -2°C° 0 mm 4 mps 739 mmHg 84%
    07:00 -2°C° 0 mm 4 mps 739 mmHg 80%
    08:00 -2°C° 0 mm 5 mps 739 mmHg 75%
    09:00 -1°C° 0 mm 5 mps 740 mmHg 69%
    10:00 -1°C° 0 mm 5 mps 740 mmHg 63%
    11:00 0°C° 0 mm 5 mps 740 mmHg 57%
    12:00 +1°C° 0 mm 4 mps 740 mmHg 53%
    13:00 +1°C° 0 mm 4 mps 741 mmHg 49%
    14:00 +3°C° 0 mm 4 mps 741 mmHg 43%
    15:00 +3°C° 0 mm 4 mps 741 mmHg 43%
    16:00 +3°C° 0 mm 4 mps 741 mmHg 44%
    17:00 +3°C° 0 mm 3 mps 741 mmHg 45%
    18:00 +2°C° 0 mm 3 mps 741 mmHg 52%
    19:00 +2°C° 0 mm 2 mps 741 mmHg 59%
    20:00 -1°C° 0 mm 2 mps 741 mmHg 66%
    21:00 -1°C° 0 mm 2 mps 742 mmHg 69%
    22:00 -1°C° 0 mm 2 mps 742 mmHg 72%
    23:00 -1°C° 0 mm 2 mps 742 mmHg 75%

    Tomorrow, 27 March, Wednesday

    Time Temperature Precipitation Wind Pressure Humidity
    00:00 -2°C° 0 mm 2 mps 743 mmHg 76%
    01:00 -2°C° 0 mm 2 mps 743 mmHg 77%
    02:00 -2°C° 0 mm 2 mps 744 mmHg 78%
    03:00 -3°C° 0 mm 2 mps 744 mmHg 75%
    04:00 -3°C° 0 mm 2 mps 745 mmHg 72%
    05:00 -3°C° 0 mm 2 mps 745 mmHg 68%
    06:00 -4°C° 0 mm 3 mps 746 mmHg 69%
    07:00 -2°C° 0 mm 3 mps 746 mmHg 70%
    08:00 -3°C° 0 mm 4 mps 747 mmHg 70%
    09:00 -2°C° 0 mm 4 mps 747 mmHg 66%
    10:00 -1°C° 0 mm 4 mps 748 mmHg 61%
    11:00 -1°C° 0 mm 4 mps 748 mmHg 56%
    12:00 0°C° 0 mm 4 mps 749 mmHg 51%
    13:00 +1°C° 0 mm 4 mps 749 mmHg 46%
    14:00 +1°C° 0 mm 4 mps 749 mmHg 41%
    15:00 +1°C° 0 mm 4 mps 750 mmHg 41%
    16:00 +2°C° 0 mm 3 mps 750 mmHg 41%
    17:00 +2°C° 0 mm 3 mps 750 mmHg 41%
    18:00 +1°C° 0 mm 3 mps 751 mmHg 46%
    19:00 -1°C° 0 mm 2 mps 751 mmHg 51%
    20:00 -2°C° 0 mm 2 mps 752 mmHg 56%
    21:00 -2°C° 0 mm 2 mps 752 mmHg 57%
    22:00 -3°C° 0 mm 2 mps 752 mmHg 59%
    23:00 -3°C° 0 mm 2 mps 753 mmHg 60%

    Day after tomorrow, 28 March, Thursday

    Time Temperature Precipitation Wind Pressure Humidity
    00:00 -3°C° 0 mm 2 mps 753 mmHg 60%
    01:00 -3°C° 0 mm 2 mps 753 mmHg 60%
    02:00 -1°C° 0 mm 1 mps 754 mmHg 60%
    03:00 -1°C° 0 mm 1 mps 754 mmHg 61%
    04:00 -1°C° 0 mm 1 mps 754 mmHg 61%
    05:00 -3°C° 0 mm 2 mps 755 mmHg 62%
    06:00 -2°C° 0 mm 2 mps 755 mmHg 59%
    07:00 -2°C° 0 mm 2 mps 755 mmHg 57%
    08:00 -1°C° 0 mm 2 mps 755 mmHg 55%
    09:00 +2°C° 0 mm 2 mps 755 mmHg 49%
    10:00 +2°C° 0 mm 3 mps 756 mmHg 44%
    11:00 +3°C° 0 mm 3 mps 756 mmHg 39%
    12:00 +4°C° 0 mm 3 mps 755 mmHg 40%
    13:00 +4°C° 0 mm 3 mps 755 mmHg 42%
    14:00 +5°C° 0 mm 4 mps 755 mmHg 43%
    15:00 +5°C° 0 mm 3 mps 755 mmHg 51%
    16:00 +4°C° 0 mm 3 mps 755 mmHg 59%
    17:00 +4°C° 0 mm 3 mps 755 mmHg 67%
    18:00 +3°C° 0 mm 3 mps 755 mmHg 71%
    19:00 +3°C° 0 mm 2 mps 755 mmHg 75%
    20:00 +3°C° 0 mm 2 mps 755 mmHg 79%
    21:00 +1°C° 0 mm 3 mps 755 mmHg 81%
    22:00 +1°C° 0 mm 3 mps 755 mmHg 83%
    23:00 0°C° 0 mm 3 mps 755 mmHg 86%

    29 March, Friday

    Time Temperature Precipitation Wind Pressure Humidity
    00:00 0°C° 0 mm 3 mps 754 mmHg 87%
    01:00 0°C° 0 mm 3 mps 754 mmHg 89%
    02:00 0°C° 0 mm 3 mps 754 mmHg 90%
    03:00 0°C° 0 mm 3 mps 754 mmHg 90%
    04:00 0°C° 0 mm 3 mps 754 mmHg 90%
    05:00 0°C° 0 mm 3 mps 754 mmHg 90%
    06:00 0°C° 0 mm 4 mps 753 mmHg 87%
    07:00 +1°C° 0 mm 4 mps 753 mmHg 84%
    08:00 +3°C° 0 mm 4 mps 753 mmHg 81%
    09:00 +3°C° 0 mm 5 mps 752 mmHg 74%
    10:00 +6°C° 0 mm 5 mps 752 mmHg 68%
    11:00 +7°C° 0 mm 5 mps 752 mmHg 61%
    12:00 +8°C° 0 mm 5 mps 751 mmHg 61%
    13:00 +10°C° 0 mm 5 mps 751 mmHg 61%
    14:00 +11°C° 0 mm 6 mps 750 mmHg 61%
    15:00 +10°C° 0 mm 5 mps 750 mmHg 63%
    16:00 +10°C° 0 mm 5 mps 749 mmHg 65%
    17:00 +10°C° 0 mm 5 mps 749 mmHg 67%
    18:00 +9°C° 0 mm 5 mps 749 mmHg 74%
    19:00 +7°C° 0 mm 5 mps 749 mmHg 80%
    20:00 +5°C° 0 mm 5 mps 749 mmHg 86%
    21:00 +5°C° 0 mm 5 mps 749 mmHg 87%
    22:00 +6°C° 0 mm 4 mps 749 mmHg 87%
    23:00 +6°C° 0 mm 4 mps 748 mmHg 88%

    30 March, Saturday

    Time Temperature Precipitation Wind Pressure Humidity
    00:00 +5°C° 0 mm 4 mps 748 mmHg 89%
    01:00 +5°C° 0 mm 4 mps 748 mmHg 90%
    02:00 +4°C° 0 mm 4 mps 748 mmHg 91%
    03:00 +3°C° 0 mm 4 mps 747 mmHg 92%
    04:00 +2°C° 0 mm 5 mps 747 mmHg 93%
    05:00 +1°C° 0 mm 5 mps 747 mmHg 93%
    06:00 +2°C° 0 mm 5 mps 747 mmHg 90%
    07:00 +2°C° 0 mm 5 mps 747 mmHg 88%
    08:00 +3°C° 0 mm 6 mps 747 mmHg 85%
    09:00 +4°C° 0 mm 6 mps 747 mmHg 78%
    10:00 +7°C° 0 mm 6 mps 747 mmHg 71%
    11:00 +8°C° 0 mm 6 mps 747 mmHg 64%
    12:00 +9°C° 0 mm 6 mps 747 mmHg 62%
    13:00 +10°C° 0 mm 6 mps 746 mmHg 59%
    14:00 +11°C° 0 mm 6 mps 746 mmHg 56%
    15:00 +11°C° 0 mm 6 mps 746 mmHg 57%
    16:00 +12°C° 0 mm 5 mps 746 mmHg 58%
    17:00 +12°C° 0 mm 5 mps 746 mmHg 58%
    18:00 +10°C° 0 mm 4 mps 746 mmHg 64%
    19:00 +8°C° 0 mm 4 mps 747 mmHg 69%
    20:00 +8°C° 0 mm 3 mps 747 mmHg 75%
    21:00 +7°C° 0 mm 3 mps 747 mmHg 78%
    22:00 +7°C° 0 mm 3 mps 747 mmHg 81%
    23:00 +5°C° 0 mm 3 mps 747 mmHg 84%

    1 April, Monday

    Time Temperature Precipitation Wind Pressure Humidity
    00:00 +8°C° 0 mm 3 mps 742 mmHg 80%
    01:00 +7°C° 0 mm 3 mps 742 mmHg 84%
    02:00 +7°C° 0 mm 3 mps 742 mmHg 88%
    03:00 +5°C° 0 mm 4 mps 742 mmHg 84%
    04:00 +3°C° 0 mm 4 mps 742 mmHg 80%
    05:00 +1°C° 0 mm 5 mps 743 mmHg 76%
    06:00 +1°C° 0 mm 5 mps 743 mmHg 73%
    07:00 +1°C° 0 mm 6 mps 744 mmHg 70%
    08:00 +1°C° 0 mm 6 mps 744 mmHg 67%
    09:00 +2°C° 0 mm 6 mps 745 mmHg 64%
    10:00 +2°C° 0 mm 6 mps 746 mmHg 61%
    11:00 +3°C° 0 mm 5 mps 747 mmHg 58%
    12:00 +3°C° 0 mm 5 mps 747 mmHg 57%
    13:00 +3°C° 0 mm 5 mps 747 mmHg 56%
    14:00 +3°C° 0 mm 5 mps 748 mmHg 55%
    15:00 +3°C° 0 mm 5 mps 748 mmHg 55%
    16:00 +2°C° 0 mm 5 mps 748 mmHg 56%
    17:00 +3°C° 0 mm 4 mps 748 mmHg 57%
    18:00 +3°C° 0 mm 4 mps 749 mmHg 59%
    19:00 +2°C° 0 mm 3 mps 749 mmHg 62%
    20:00 +3°C° 0 mm 2 mps 750 mmHg 64%
    21:00 +2°C° 0 mm 2 mps 750 mmHg 69%
    22:00 +1°C° 0 mm 2 mps 750 mmHg 73%
    23:00 -1°C° 0 mm 2 mps 750 mmHg 78%
    Show more